RESURS-P 5 (62430 NORAD) Tracking and Keplerian Element Data

This shows tracking and keplerian element data for the satellite.

Feedback or suggestion? Click here.




ElementValue
Catalog62430
NameRESURS-P 5
Epoch Orbit628
Epoch Day35.23685743
Epoch Year2025
RAAN324.4289
Inclination97.2609
Eccentricity0.0001744
Argument of Perigee63.1748
Mean Anonmoly296.9672
Mean Motion15.32317769
Decay Rate7.038E-05
L11 62430U 24250A 25035.23685743 .00007038 00000+0 22800-3 0 9993
L22 62430 97.2609 324.4289 0001744 63.1748 296.9672 15.32317769 6288



Live tracking and technical data element details for RESURS-P 5 (NORAD 62430). RESURS-P 5 can be tracked NOW for your location showing map with azimuth and elevation plus other details from your city location.







IsCatalogInMostPopularTable: catalog: 62430, numindb: 10
Update: records affected: 1



GetName: 62430 RESURS-P 5

Hit Count: updated at: Sun, 18 May 2025 23:48:06 GMT